Weather History for Rheineck-Altenrhein, Switzerland

Change the Weather History Date:

Friday, January 17, 2014

  Actual Average (LOIH) Record (LOIH)
Temperature  
Mean Temperature 39 °F -  
Max Temperature 46 °F 37 °F 50 °F (2007)
Min Temperature 32 °F 30 °F 19 °F (1997)
Degree Days  
Heating Degree Days 26    
Moisture  
Dew Point 36 °F    
Average Humidity 81    
Maximum Humidity 93    
Minimum Humidity 62    
Precipitation  
Precipitation 0.00 in - - ()
Sea Level Pressure  
Sea Level Pressure 29.70 in    
Wind  
Wind Speed 3 mph ()    
Max Wind Speed 9 mph    
Max Gust Speed -    
Visibility 5.5 miles    
Events Rain    
Averages and records for this station are not official NWS values.
T = Trace of Precipitation, MM = Missing Value Source: Averaged Metar Reports

Daily Weather History Graph

Daily Weather History Graph

Search for Another Location

Airport:

Trip Planner

Search our weather history database for the weather conditions in past years. The results will help you decide how hot, cold, wet, or windy it might be!

Date:

Astronomy

Jan. 17, 2014 Rise Set
Actual Time 8:03 AM CET 5:00 PM CET
Civil Twilight 7:29 AM CET 5:34 PM CET
Nautical Twilight 6:51 AM CET 6:13 PM CET
Astronomical Twilight 6:14 AM CET 6:49 PM CET
Moon 6:41 PM CET (1/17) 8:13 AM CET (1/17)
Length of Visible Light 10h 05m
Length of Day
8h 56m
Full, 99% of the Moon is Illuminated
Jan 17
Full
Jan 24
Last Quarter
Jan 30
New
Feb 6
First Quarter
Feb 15
Full

Hourly Weather History & Observations

Time (CET) Temp. Windchill Dew Point Humidity Pressure Visibility Wind Dir Wind Speed Gust Speed Precip Events Conditions
12:20 AM 42.8 °F 41.1 °F 37.4 °F 81% 29.74 in 6.2 mi ESE 3.5 mph - N/A   Light Drizzle
12:50 AM 41.0 °F - 37.4 °F 87% 29.74 in 6.2 mi Variable 1.2 mph - N/A   Overcast
1:20 AM 41.0 °F - 37.4 °F 87% 29.74 in 6.2 mi Variable 1.2 mph - N/A   Overcast
1:50 AM 42.8 °F - 37.4 °F 81% 29.77 in 6.2 mi Variable 1.2 mph - N/A Rain Light Rain
2:20 AM 41.0 °F - 37.4 °F 87% 29.77 in 6.2 mi Calm Calm - N/A   Light Drizzle
2:50 AM 41.0 °F - 37.4 °F 87% 29.77 in 6.2 mi Variable 1.2 mph - N/A Rain Light Rain
3:20 AM 41.0 °F - 37.4 °F 87% 29.77 in 6.2 mi SE 2.3 mph - N/A Rain Light Rain
3:50 AM 41.0 °F 37.1 °F 37.4 °F 87% 29.74 in 6.2 mi SE 5.8 mph - N/A Rain Light Rain
4:20 AM 42.8 °F 38.6 °F 39.2 °F 87% 29.74 in 6.2 mi SE 6.9 mph - N/A Rain Light Rain
4:50 AM 41.0 °F 35.8 °F 37.4 °F 87% 29.74 in 6.2 mi SE 8.1 mph - N/A   Overcast
5:20 AM 42.8 °F 38.6 °F 37.4 °F 81% 29.74 in 6.2 mi ESE 6.9 mph - N/A Rain Light Rain Showers
5:50 AM 42.8 °F 41.1 °F 37.4 °F 81% 29.74 in 6.2 mi South 3.5 mph - N/A Rain Light Rain Showers
6:20 AM 42.8 °F - 35.6 °F 76% 29.71 in 6.2 mi Variable 2.3 mph - N/A   Mostly Cloudy
6:50 AM 42.8 °F 37.5 °F 35.6 °F 76% 29.71 in 6.2 mi South 9.2 mph - N/A Rain Light Rain Showers
7:20 AM 42.8 °F 40.1 °F 35.6 °F 76% 29.71 in 6.2 mi SE 4.6 mph - N/A   Mostly Cloudy
7:50 AM 44.6 °F 41.4 °F 35.6 °F 71% 29.68 in 6.2 mi South 5.8 mph - N/A   Mostly Cloudy
8:20 AM 42.8 °F 39.3 °F 35.6 °F 76% 29.68 in 6.2 mi SSE 5.8 mph - N/A   Mostly Cloudy
8:50 AM 42.8 °F 39.3 °F 35.6 °F 76% 29.68 in 6.2 mi SSE 5.8 mph - N/A   Mostly Cloudy
9:20 AM 42.8 °F 40.1 °F 35.6 °F 76% 29.68 in 6.2 mi South 4.6 mph - N/A   Mostly Cloudy
9:50 AM 44.6 °F 42.2 °F 35.6 °F 71% 29.68 in 6.2 mi SSE 4.6 mph - N/A   Mostly Cloudy
10:20 AM 44.6 °F 41.4 °F 33.8 °F 66% 29.68 in 6.2 mi South 5.8 mph - N/A   Mostly Cloudy
10:50 AM 42.8 °F 38.0 °F 37.4 °F 81% 29.68 in 6.2 mi West 8.1 mph - N/A   Mostly Cloudy
11:20 AM 42.8 °F 38.6 °F 37.4 °F 81% 29.71 in 6.2 mi West 6.9 mph - N/A   Mostly Cloudy
11:50 AM 42.8 °F 41.1 °F 37.4 °F 81% 29.71 in 6.2 mi West 3.5 mph - N/A   Mostly Cloudy
12:20 PM 42.8 °F - 37.4 °F 81% 29.71 in 6.2 mi Variable 2.3 mph - N/A Rain Light Rain Showers
12:50 PM 42.8 °F - 39.2 °F 87% 29.71 in 6.2 mi Variable 2.3 mph - N/A   Mostly Cloudy
1:20 PM 42.8 °F 40.1 °F 39.2 °F 87% 29.68 in 6.2 mi East 4.6 mph - N/A Rain Light Rain
1:50 PM 42.8 °F 40.1 °F 39.2 °F 87% 29.68 in 6.2 mi East 4.6 mph - N/A   Light Drizzle
2:20 PM 42.8 °F 40.1 °F 39.2 °F 87% 29.68 in 6.2 mi ESE 4.6 mph - N/A   Mostly Cloudy
2:50 PM 44.6 °F 42.2 °F 39.2 °F 81% 29.68 in 6.2 mi East 4.6 mph - N/A   Mostly Cloudy
3:20 PM 44.6 °F - 37.4 °F 76% 29.68 in - Variable 1.2 mph - N/A   Clear
3:50 PM 46.4 °F 42.9 °F 35.6 °F 66% 29.68 in 6.2 mi South 6.9 mph - N/A   Mostly Cloudy
4:20 PM 46.4 °F 43.5 °F 35.6 °F 66% 29.65 in - SE 5.8 mph - N/A   Clear
4:50 PM 44.6 °F - 35.6 °F 71% 29.65 in - Variable 2.3 mph - N/A   Clear
5:20 PM 44.6 °F - 37.4 °F 76% 29.65 in - Variable 2.3 mph - N/A   Clear
5:50 PM 46.4 °F 43.5 °F 33.8 °F 62% 29.65 in - South 5.8 mph - N/A   Clear
6:20 PM 44.6 °F 43.1 °F 35.6 °F 71% 29.65 in - Variable 3.5 mph - N/A   Clear
6:50 PM 41.0 °F 39.0 °F 35.6 °F 81% 29.68 in - West 3.5 mph - N/A   Clear
7:20 PM 41.0 °F - 35.6 °F 81% 29.68 in - Calm Calm - N/A   Clear
7:50 PM 39.2 °F - 35.6 °F 87% 29.68 in - Variable 1.2 mph - N/A   Clear
8:20 PM 35.6 °F - 33.8 °F 93% 29.71 in - Variable 1.2 mph - N/A   Clear
8:50 PM 35.6 °F - 32.0 °F 87% 29.71 in - Variable 1.2 mph - N/A   Clear
9:20 PM 35.6 °F - 32.0 °F 87% 29.71 in - Variable 1.2 mph - N/A   Clear
9:50 PM 35.6 °F - 32.0 °F 87% 29.71 in 3.1 mi Variable 1.2 mph - N/A   Unknown
10:20 PM 33.8 °F - 32.0 °F 93% 29.71 in 1.1 mi Calm Calm - N/A   Mist
10:50 PM 33.8 °F - 32.0 °F 93% 29.71 in 0.6 mi Calm Calm - N/A   Mist
11:20 PM 32.0 °F - 30.2 °F 93% 29.71 in 0.2 mi SW 1.2 mph - N/A   Mostly Cloudy
11:50 PM 33.8 °F - 30.2 °F 87% 29.71 in 0.7 mi Variable 1.2 mph - N/A   Overcast